Terminal Aerodrome Forecast
Issued by NWS

Home | Current Version | Previous Version | Text Only | Print | Product List | Glossary On
Versions: 1 2 3 4 5 6 7 8 9 10 11 12 13 14 15 16 17 18
661
FTUS43 KEAX 050520
TAFSTJ
TAF
KSTJ 050520Z 0506/0606 VRB04KT 4SM BR SKC
     FM051400 18007KT P6SM SCT100
     FM051700 18011KT P6SM FEW200
     FM060500 VRB05KT P6SM BKN100=

USA.gov is the U.S. government's official web portal to all federal, state and local government web resources and services.